Find Starlink 31895

NORAD ID: 59849 Int'l Des: 2024-097 Owner: SPXS Country: US Constellation: starlink operational
LEOCIRCULAR

Current View

Loading 3D Globe...

About Starlink 31895

Starlink 31895 (NORAD 59849) is a starlink constellation satellite (v2 mini) launched May 23, 2024 by SPXS of US. It operates in LEO, CIRCULAR orbit with a mass of 730.00 kg.

About Starlink 31895

Description loading...

Upcoming Passes

Passes for default location (London). Set your location on the main map for personalized predictions.

Altitude History

Loading altitude history...

Two-Line Element Set

1 59849U 24097Q 26171.05515586 .00005353 00000-0 20387-3 0 9998
2 59849 43.0038 56.1378 0001428 268.5514 91.5175 15.27587787117577
Epoch: Jun 20, 2026 • Age: 18 hours

Current Status

Altitude 494.6 km
Velocity 7.62 km/s
Sub-Earth Point -41.06°S, 95.68°E
Launch Date May 23, 2024
Age 2 years
Type internet

Technical Details

Classification Payload
Mass 730.00 kg
Dry Mass 700.00 kg
Total Mass 730.00 kg
Length 0.30 m
Diameter 4.10 m
Span 29.00 m
Shape Box + pan
Manufacturer SPXS
Bus Type Starlink V2M
Phase Status In Orbit
Owner/State SPXS/US

Most Searched